Weather History for KFMY - October, 2014

Change the Weather History Date:

Wednesday, October 22, 2014

  Actual Average Record
Temperature  
Mean Temperature 79 °F 77 °F  
Max Temperature 86 °F 86 °F 93 °F (1990)
Min Temperature 71 °F 68 °F 51 °F (1913)
Degree Days  
Heating Degree Days 0 0  
Month to date heating degree days 0 0  
Since 1 July heating degree days 0 0  
Cooling Degree Days 14 12  
Month to date cooling degree days 295 306  
Year to date cooling degree days 3706 3552  
Growing Degree Days 28 (Base 50)    
Moisture  
Dew Point 71 °F    
Average Humidity 82    
Maximum Humidity 100    
Minimum Humidity 57    
Precipitation  
Precipitation T in 0.08 in 2.81 in (1937)
Month to date precipitation 1.24 2.22  
Year to date precipitation 37.72 51.60  
Sea Level Pressure  
Sea Level Pressure 29.94 in    
Wind  
Wind Speed 3 mph (East)    
Max Wind Speed 12 mph    
Max Gust Speed 18 mph    
Visibility 10 miles    
Events      
T = Trace of Precipitation, MM = Missing Value Source: NWS Daily Summary

Daily Weather History Graph

Daily Weather History Graph

Search for Another Location

Airport or City:

Trip Planner

Search our weather history database for the weather conditions in past years. The results will help you decide how hot, cold, wet, or windy it might be!

Date:

Astronomy

Oct. 22, 2014 Rise Set
Actual Time 7:30 AM EDT 6:52 PM EDT
Civil Twilight 7:07 AM EDT 7:16 PM EDT
Nautical Twilight 6:40 AM EDT 7:43 PM EDT
Astronomical Twilight 6:13 AM EDT 8:10 PM EDT
Moon 6:17 AM EDT (10/22) 6:13 PM EDT (10/22)
Length of Visible Light 12h 09m
Length of Day
11h 22m
Waning Crescent, 2% of the Moon is Illuminated
Oct 22
Waning Crescent
Oct 23
New
Oct 30
First Quarter
Nov 6
Full
Nov 14
Last Quarter

Hourly Weather History & Observations

Time (EDT) Temp. Heat Index Dew Point Humidity Pressure Visibility Wind Dir Wind Speed Gust Speed Precip Events Conditions
12:53 AM 73.9 °F - 71.1 °F 91% 29.94 in 10.0 mi SSE 4.6 mph - N/A   Clear
1:53 AM 72.0 °F - 71.1 °F 97% 29.93 in 10.0 mi Calm Calm - N/A   Clear
2:53 AM 72.0 °F - 71.1 °F 97% 29.91 in 10.0 mi Calm Calm - N/A   Clear
3:53 AM 72.0 °F - 71.1 °F 97% 29.91 in 10.0 mi Calm Calm - N/A   Clear
4:53 AM 72.0 °F - 71.1 °F 97% 29.91 in 10.0 mi Calm Calm - N/A   Clear
5:53 AM 72.0 °F - 70.0 °F 93% 29.93 in 10.0 mi Calm Calm - N/A   Clear
6:53 AM 71.1 °F - 70.0 °F 96% 29.94 in 10.0 mi Calm Calm - N/A   Clear
7:53 AM 72.0 °F - 71.1 °F 97% 29.95 in 10.0 mi East 3.5 mph - N/A   Clear
8:53 AM 73.0 °F - 71.1 °F 93% 29.98 in 10.0 mi East 3.5 mph - N/A   Scattered Clouds
9:53 AM 75.0 °F - 72.0 °F 90% 29.98 in 10.0 mi East 4.6 mph - N/A   Clear
10:53 AM 78.1 °F - 71.1 °F 79% 29.98 in 10.0 mi NE 8.1 mph - N/A   Clear
11:53 AM 80.1 °F 83.6 °F 71.1 °F 74% 29.98 in 10.0 mi NE 5.8 mph - N/A   Partly Cloudy
12:31 PM 81.0 °F 84.9 °F 71.1 °F 72% 29.97 in 10.0 mi East 4.6 mph - N/A   Mostly Cloudy
12:53 PM 81.0 °F 84.4 °F 70.0 °F 69% 29.97 in 10.0 mi Calm Calm - N/A   Partly Cloudy
1:53 PM 82.0 °F 85.9 °F 70.0 °F 67% 29.93 in 10.0 mi Variable 4.6 mph - N/A   Clear
2:53 PM 84.9 °F 90.1 °F 71.1 °F 63% 29.91 in 10.0 mi NE 5.8 mph - N/A   Partly Cloudy
3:53 PM 86.0 °F 90.7 °F 70.0 °F 59% 29.90 in 10.0 mi ESE 5.8 mph - N/A   Partly Cloudy
4:53 PM 82.9 °F 85.8 °F 68.0 °F 60% 29.90 in 10.0 mi SE 4.6 mph - N/A   Scattered Clouds
5:53 PM 80.1 °F 83.8 °F 72.0 °F 76% 29.91 in 10.0 mi Calm Calm - 0.00 in   Mostly Cloudy
6:53 PM 80.1 °F 83.2 °F 70.0 °F 71% 29.92 in 10.0 mi Calm Calm - N/A   Overcast
7:53 PM 78.1 °F - 71.1 °F 79% 29.93 in 10.0 mi Calm Calm - 0.00 in   Overcast
8:53 PM 78.1 °F - 71.1 °F 79% 29.94 in 10.0 mi SE 3.5 mph - N/A   Overcast
9:53 PM 77.0 °F - 71.1 °F 82% 29.94 in 10.0 mi SE 3.5 mph - N/A   Scattered Clouds
10:53 PM 77.0 °F - 71.1 °F 82% 29.94 in 10.0 mi Calm Calm - N/A   Mostly Cloudy
11:53 PM 75.9 °F - 70.0 °F 82% 29.94 in 10.0 mi ENE 6.9 mph 17.3 mph N/A   Partly Cloudy